Wetbulb
78.02 77.79 76.61 72.02 63.55 63.02 58.13 59.46 63.41 62.13 63.15 66.12 66.59 64.69 64.38 65.72 62.88 59.60 72.42 73.97 74.50 74.94 75.39 75.68 78.00 78.66 78.41 78.62 78.54 78.58 78.24 78.36 78.26 78.25 78.13 77.56 77.82 78.00 77.68 77.40 77.11 77.59 77.59 77.39 77.58 77.28 76.92 75.90 75.99
77.22 74.82 70.55 67.63 60.65 56.88 57.21 62.13 61.39 63.76 65.87 67.92 67.39 66.47 65.19 62.83 68.28 69.28 70.84 73.97 74.99 75.39 76.13 75.88 77.55 78.22 78.28 78.50 78.70 78.77 78.18 77.72 78.45 78.82 78.89 78.58 78.16 77.73 77.82 76.68 76.85 77.16 77.78 77.55 77.72 77.17 77.36 75.77 75.77
73.54 72.61 66.57 64.18 60.45 56.48 57.59 61.70 63.53 65.48 67.17 66.81 65.46 67.84 65.99 64.00 68.78 70.36 73.71 74.45 75.28 75.71 76.43 76.49 78.07 78.54 77.91 78.28 78.80 78.66 78.53 78.02 78.33 78.39 78.42 78.49 78.11 77.72 77.04 76.49 76.13 76.48 76.61 76.51 76.89 77.41 77.63 76.81 75.49
71.58 70.06 68.28 61.46 57.96 60.96 60.51 62.63 64.76 64.65 66.84 67.91 66.98 64.21 67.78 70.30 70.15 72.43 74.41 74.80 74.66 75.41 76.07 76.85 77.71 77.57 77.64 77.89 78.54 78.31 78.56 78.48 78.77 78.72 77.76 77.55 76.68 76.46 76.41 76.24 76.18 75.99 76.95 77.40 77.05 77.26 77.12 76.80 76.53
71.91 67.59 61.40 59.48 59.37 61.85 64.20 64.54 65.85 64.71 65.68 66.28 66.76 63.79 65.66 71.10 73.69 73.88 74.37 74.67 74.16 75.06 75.81 76.25 77.99 78.11 78.04 77.88 78.16 78.72 78.73 78.46 78.80 78.92 78.89 78.83 78.39 77.68 77.46 77.51 76.54 76.18 76.15 76.23 76.34 76.47 76.71 76.62 76.08
66.09 65.77 58.78 56.42 58.32 62.60 64.46 66.03 65.74 65.73 66.02 66.09 65.33 65.10 65.68 72.39 72.45 73.58 74.46 74.51 75.15 74.95 75.44 76.00 77.32 77.87 77.73 77.79 77.93 78.16 78.25 78.27 78.26 78.53 78.19 78.02 77.53 77.86 77.73 77.34 77.23 76.98 76.76 76.54 76.01 75.92 75.97 75.64 75.45
63.63 62.96 58.49 57.86 59.04 60.83 63.26 66.99 65.47 65.45 65.68 65.54 67.92 63.76 67.44 70.31 72.70 73.97 74.55 74.77 75.05 75.50 75.12 75.82 76.07 76.98 77.33 78.54 77.98 77.66 78.07 77.90 77.80 77.79 77.42 78.04 77.17 76.90 76.79 76.68 76.46 76.46 76.27 76.01 75.29 75.01 74.98 74.87 74.30
67.19 64.09 58.07 59.06 58.76 59.46 64.99 65.85 67.53 66.41 65.59 69.69 69.16 64.24 64.41 69.84 72.82 74.06 74.28 74.31 74.28 75.19 74.94 75.54 76.48 76.59 76.95 77.42 77.69 77.52 77.78 77.47 77.37 76.82 76.43 77.25 75.14 75.12 75.99 76.25 76.33 76.24 75.79 75.54 75.49 74.96 74.52 74.40 74.32
66.77 59.17 57.28 57.89 59.01 61.05 65.86 64.15 67.40 69.66 67.36 68.03 68.55 67.84 69.96 71.30 72.79 72.65 72.08 72.98 73.58 74.19 74.15 74.96 75.20 76.52 76.78 77.16 76.79 77.56 77.29 76.99 76.22 75.86 75.22 76.00 74.89 73.16 72.26 74.45 74.69 75.13 75.32 75.54 75.84 75.75 75.60 75.11 75.19
62.35 58.35 57.57 60.77 63.21 62.29 65.04 64.60 65.86 66.37 66.16 65.83 67.02 70.00 71.38 71.57 71.53 70.74 70.53 70.13 71.47 72.40 73.53 74.08 74.65 75.01 75.99 76.01 77.20 77.49 77.35 77.01 74.84 73.92 72.85 72.07 72.88 69.60 69.70 73.64 74.07 74.68 74.48 74.46 74.82 74.93 74.76 75.38 77.02
61.20 58.67 60.38 61.50 64.12 64.90 64.59 63.95 66.25 65.90 63.98 66.41 66.09 67.91 69.87 70.26 70.61 70.19 70.37 70.71 70.87 72.09 73.08 73.77 75.07 75.87 75.60 75.59 76.59 76.68 76.40 76.39 74.53 73.41 73.35 72.74 71.54 71.09 70.80 73.07 74.05 73.56 74.10 74.55 74.43 74.82 75.02 73.92 75.01
57.55 61.04 61.39 63.77 65.61 64.32 63.31 65.47 65.57 66.14 66.62 69.25 69.19 69.48 69.40 69.19 69.42 69.66 69.69 70.38 70.88 71.43 72.11 73.61 74.87 75.91 75.94 75.83 75.87 77.35 75.94 73.95 72.05 75.76 75.74 73.11 70.72 72.44 71.02 70.50 70.91 70.78 71.53 73.77 73.88 73.32 73.45 72.91 73.14
57.84 59.63 61.73 64.73 65.00 64.60 65.13 64.26 65.69 65.93 68.73 69.50 69.55 69.16 68.98 69.28 69.60 70.38 71.21 71.70 72.03 71.43 71.90 72.67 74.69 75.18 75.88 76.21 75.74 75.98 73.18 72.46 75.18 75.37 75.58 74.74 73.88 71.19 73.20 72.18 71.68 70.41 71.03 72.06 72.62 72.72 71.82 71.83 72.09
59.20 59.53 60.96 64.85 64.56 64.84 63.94 62.97 64.99 66.83 68.85 68.35 68.56 68.57 69.26 69.53 70.03 70.59 70.95 71.39 72.23 72.94 73.33 73.15 73.35 74.93 75.50 75.56 76.32 75.91 74.73 72.80 75.21 76.46 75.66 75.26 73.24 74.22 74.65 72.20 71.47 71.80 71.75 71.09 71.86 71.88 71.39 70.82 71.06
58.97 57.64 59.35 63.18 64.24 63.34 64.50 60.63 62.03 67.94 68.54 67.71 67.96 68.85 69.23 69.75 70.64 70.57 71.63 71.64 72.44 72.95 73.42 73.83 73.86 74.11 74.78 75.06 75.41 75.37 74.87 72.29 71.72 71.60 72.73 74.54 73.44 73.43 73.99 72.07 71.25 73.96 72.97 72.09 71.20 70.95 70.76 70.47 70.98
56.54 57.83 55.63 58.50 63.63 63.58 62.98 57.47 62.93 68.27 67.63 66.85 67.54 68.28 69.05 70.05 70.87 71.67 72.29 72.45 73.20 73.55 73.24 73.50 73.30 73.79 74.38 74.54 74.53 73.76 74.45 72.51 73.30 72.10 71.02 72.16 73.74 74.15 73.42 72.92 72.48 73.74 73.61 73.33 73.02 72.07 71.09 70.88 71.09
56.10 53.14 54.19 56.10 62.72 62.59 62.08 58.80 61.18 67.93 67.72 67.05 67.51 68.16 68.59 69.57 70.71 71.87 72.59 73.19 73.66 73.82 74.26 73.29 73.83 73.45 74.24 74.68 74.43 72.67 73.01 72.15 71.90 71.90 71.65 70.90 72.14 73.91 73.40 73.34 73.30 71.56 72.32 73.03 73.98 73.36 72.65 71.25 71.06
52.11 52.26 53.19 53.99 58.28 61.53 60.40 59.91 63.12 66.47 67.05 67.28 67.72 68.29 68.74 69.16 70.03 71.91 72.17 73.17 73.87 74.39 74.72 74.91 74.93 74.99 75.28 75.11 74.91 74.84 74.61 73.48 73.73 73.06 73.36 71.89 71.84 72.74 72.41 72.60 74.19 72.63 74.02 73.12 73.41 73.74 73.62 72.36 71.49
54.09 52.57 52.28 54.07 57.49 59.57 59.55 59.75 57.81 64.69 66.33 66.21 67.03 67.88 68.62 69.16 71.14 71.09 72.04 73.18 73.64 74.07 74.13 74.43 74.49 75.01 74.53 73.80 73.20 73.23 72.53 73.84 73.74 73.82 73.56 72.61 71.89 71.31 71.40 71.35 73.19 72.57 73.14 72.85 73.39 73.61 72.89 71.74 72.45
53.85 51.83 51.70 53.45 56.85 58.09 56.07 57.57 59.83 62.51 65.06 66.57 66.81 67.06 67.77 68.62 68.28 69.50 69.79 72.17 73.03 73.39 73.96 74.06 74.06 74.99 74.10 73.75 74.30 74.13 73.77 73.69 74.30 74.92 74.59 74.16 72.84 71.59 73.01 72.65 72.47 73.96 72.38 70.97 71.04 73.32 72.92 74.00 74.04
52.96 52.06 51.67 52.71 53.77 54.51 54.61 54.32 56.90 60.25 63.73 66.36 67.46 68.35 68.70 68.59 68.27 66.16 67.22 67.26 71.63 73.01 73.07 73.51 74.20 74.43 74.58 74.55 74.24 73.77 73.79 74.01 73.31 73.34 73.82 73.57 72.89 73.10 73.50 74.07 73.64 72.79 72.72 71.54 72.44 73.34 73.31 72.22 73.72
51.95 53.30 52.72 51.94 52.38 50.16 53.67 48.25 55.85 57.85 59.53 61.62 64.73 66.48 68.22 68.72 68.93 67.39 64.63 64.99 69.17 72.00 72.57 73.30 73.86 74.22 74.11 74.36 73.60 73.12 72.63 71.90 73.18 73.80 74.44 74.59 74.64 74.86 74.73 74.74 74.21 73.57 70.71 71.60 72.65 72.70 73.40 73.26 70.76
52.65 54.30 53.02 52.25 51.31 51.05 52.44 50.61 54.71 57.87 58.73 61.74 64.69 66.42 66.40 68.36 69.00 69.19 68.96 69.01 70.89 71.78 71.90 72.70 73.29 74.20 74.40 74.34 73.82 72.79 73.00 73.24 73.78 73.39 73.32 74.84 74.84 74.84 74.77 74.67 74.58 73.94 73.28 73.14 72.38 73.27 73.09 72.86 71.77
53.61 53.15 52.73 53.06 51.92 48.52 51.42 51.58 54.43 57.41 57.78 59.23 62.83 65.17 66.54 67.53 68.58 69.63 70.14 70.89 71.24 71.86 72.38 72.50 73.28 73.67 74.54 74.44 74.44 73.89 73.21 74.00 73.32 73.52 73.24 73.30 73.99 74.75 74.81 74.68 74.58 74.80 74.58 74.31 74.00 73.71 73.27 72.18 73.06
53.13 51.59 48.59 46.87 47.90 47.47 52.93 51.80 54.93 58.45 59.14 59.82 61.68 64.29 66.81 67.80 68.39 68.83 69.01 68.55 69.35 71.89 72.85 72.69 73.07 73.44 73.94 73.79 73.82 73.72 73.87 73.87 73.66 73.57 72.69 73.27 73.03 73.76 75.28 75.17 74.03 74.81 75.05 74.83 74.79 73.88 73.02 72.52 71.36
51.76 51.92 48.35 42.74 44.56 47.98 52.95 51.18 56.06 59.86 62.49 63.35 64.12 66.18 66.84 68.03 69.84 71.02 71.44 71.71 70.77 69.57 73.05 73.83 73.75 73.64 73.20 72.50 73.42 71.32 71.07 70.46 70.85 72.58 72.50 72.15 73.07 73.53 74.93 75.17 75.19 75.66 75.14 73.89 74.41 73.65 73.21 73.91 73.29
50.86 50.78 51.36 49.05 49.70 50.18 52.33 54.54 58.44 60.13 61.45 62.47 64.58 66.17 66.08 67.33 69.23 68.95 70.75 70.61 70.48 71.87 71.39 73.91 73.99 73.57 73.05 72.08 70.68 71.08 70.23 70.40 70.42 71.27 73.62 73.16 74.06 74.18 74.08 74.24 74.94 75.48 75.24 74.82 74.94 73.00 72.87 73.53 73.58
52.74 52.39 49.48 51.44 46.12 44.69 50.32 51.37 53.88 57.51 60.18 62.06 63.70 65.51 66.16 66.95 69.37 69.91 70.09 70.11 71.12 70.60 71.91 72.47 72.59 72.89 72.36 71.19 70.87 70.08 70.37 70.11 70.42 71.41 72.34 73.47 75.23 75.64 74.64 74.44 75.09 75.31 75.01 74.65 74.68 73.36 73.79 74.02 72.46
51.34 52.08 51.38 52.59 51.51 48.03 46.83 51.39 57.68 57.93 60.32 61.72 63.79 66.32 65.05 65.03 68.05 69.73 70.45 70.81 72.09 72.21 71.39 71.65 71.36 71.36 71.99 72.59 72.88 71.68 71.25 72.14 72.93 72.79 73.49 73.99 76.01 76.29 75.56 75.20 74.95 74.35 73.18 72.83 73.20 73.56 72.99 71.50 70.48
54.89 53.94 54.39 51.44 49.74 51.88 51.46 51.81 57.97 58.89 59.83 61.67 63.48 65.60 64.41 66.08 67.89 69.56 70.53 70.24 70.27 70.16 71.34 72.14 73.56 73.45 73.80 74.39 74.21 73.59 74.64 74.67 74.25 74.88 75.03 76.08 75.89 77.11 76.37 75.82 74.68 74.39 73.74 72.42 72.23 71.82 71.59 70.75 70.81
MSLP
1007.31 1007.54 1007.83 1007.63 1007.57 1007.07 1007.14 1007.28 1007.12 1006.68 1006.93 1007.48 1007.95 1008.45 1009.22 1010.07 1010.42 1011.58 1012.35 1012.56 1012.78 1013.19 1013.63 1013.99 1014.23 1014.35 1014.58 1014.75 1014.99 1015.13 1015.34 1015.61 1015.89 1016.09 1016.28 1016.56 1016.81 1016.93 1017.14 1017.41 1017.57 1017.52 1017.69 1017.82 1017.91 1018.02 1018.23 1018.47 1018.61
1007.30 1007.67 1007.56 1007.05 1007.07 1007.11 1007.43 1007.36 1007.07 1007.15 1007.49 1007.81 1008.35 1008.89 1009.54 1010.59 1011.12 1011.86 1012.40 1012.77 1012.85 1013.16 1013.64 1014.06 1014.56 1014.59 1014.85 1015.06 1015.26 1015.38 1015.59 1015.80 1016.05 1016.24 1016.43 1016.65 1016.86 1017.14 1017.24 1017.58 1017.78 1017.74 1017.85 1018.01 1018.13 1018.26 1018.43 1018.71 1018.83
1007.45 1007.25 1007.02 1006.82 1007.29 1007.32 1007.47 1007.57 1007.31 1007.45 1007.58 1007.70 1008.54 1009.40 1010.21 1011.29 1011.69 1011.97 1012.42 1012.96 1013.08 1013.45 1013.74 1014.38 1014.70 1014.91 1015.09 1015.31 1015.55 1015.70 1015.91 1016.17 1016.38 1016.57 1016.70 1016.89 1017.06 1017.19 1017.41 1017.75 1017.98 1018.04 1018.12 1018.27 1018.48 1018.54 1018.68 1018.89 1019.09
1006.95 1006.97 1007.16 1006.90 1007.06 1007.49 1007.33 1007.37 1007.23 1007.30 1007.59 1008.09 1008.57 1009.72 1011.15 1011.54 1011.92 1012.40 1012.97 1013.18 1013.37 1013.70 1013.96 1014.70 1014.98 1015.17 1015.44 1015.69 1015.88 1015.99 1016.20 1016.41 1016.61 1016.82 1017.07 1017.15 1017.29 1017.44 1017.56 1018.00 1018.09 1018.24 1018.35 1018.53 1018.75 1018.92 1019.03 1019.17 1019.29
1006.57 1006.26 1006.57 1006.89 1006.82 1007.05 1007.12 1007.07 1007.05 1007.28 1007.95 1008.47 1008.83 1010.48 1011.47 1012.10 1012.29 1012.80 1013.18 1013.44 1013.60 1013.92 1014.26 1014.83 1015.23 1015.43 1015.72 1015.99 1016.20 1016.27 1016.43 1016.66 1016.89 1017.00 1017.13 1017.25 1017.40 1017.61 1017.72 1018.04 1018.22 1018.46 1018.66 1018.80 1019.00 1019.14 1019.24 1019.40 1019.48
1006.14 1006.52 1006.38 1006.56 1006.68 1006.63 1006.64 1006.73 1006.94 1007.35 1008.13 1008.78 1009.50 1010.51 1012.10 1012.52 1012.72 1013.02 1013.38 1013.64 1013.79 1014.19 1014.57 1015.07 1015.57 1015.77 1015.96 1016.07 1016.30 1016.53 1016.67 1016.84 1017.08 1017.20 1017.49 1017.66 1017.81 1017.81 1018.07 1018.20 1018.27 1018.60 1018.85 1019.05 1019.22 1019.31 1019.40 1019.53 1019.62
1006.17 1006.40 1006.38 1006.43 1006.36 1006.22 1006.31 1006.58 1006.82 1007.33 1008.05 1008.57 1009.30 1010.65 1012.33 1012.75 1012.93 1013.28 1013.70 1014.01 1014.17 1014.42 1014.81 1015.14 1015.45 1015.88 1016.14 1016.20 1016.41 1016.63 1016.85 1017.07 1017.29 1017.52 1017.81 1017.86 1018.15 1018.28 1018.41 1018.49 1018.71 1018.87 1018.97 1019.16 1019.40 1019.51 1019.55 1019.66 1019.76
1006.45 1006.47 1006.10 1006.14 1006.13 1005.96 1006.26 1006.65 1007.11 1007.48 1008.23 1008.80 1009.35 1010.23 1011.83 1012.57 1013.16 1013.56 1013.99 1014.31 1014.59 1014.93 1015.08 1015.32 1015.55 1015.75 1016.07 1016.34 1016.57 1016.79 1017.07 1017.46 1017.68 1017.82 1018.07 1018.15 1018.67 1018.82 1018.72 1018.83 1018.92 1018.95 1019.10 1019.32 1019.46 1019.64 1019.67 1019.73 1019.79
1006.65 1006.14 1005.85 1005.73 1005.80 1005.62 1006.28 1006.66 1007.45 1007.94 1008.25 1008.94 1009.57 1010.10 1010.86 1012.61 1013.36 1013.80 1014.28 1014.69 1014.90 1015.06 1015.12 1015.23 1015.57 1015.85 1016.10 1016.40 1016.62 1017.10 1017.27 1017.69 1017.98 1018.33 1018.66 1018.69 1019.06 1019.19 1018.99 1019.06 1019.25 1019.29 1019.35 1019.32 1019.57 1019.69 1019.74 1019.78 1019.75
1006.38 1006.25 1005.49 1005.51 1005.42 1005.50 1006.23 1006.61 1007.25 1007.94 1008.46 1009.45 1010.25 1011.05 1011.90 1012.83 1013.36 1013.64 1014.03 1014.32 1014.52 1014.75 1015.00 1015.23 1015.35 1015.68 1016.01 1016.26 1016.64 1017.15 1017.50 1017.83 1017.94 1018.72 1019.32 1019.46 1019.34 1019.21 1019.16 1019.19 1019.29 1019.26 1019.34 1019.43 1019.58 1019.75 1019.85 1019.72 1019.49
1006.33 1005.87 1005.48 1005.16 1005.21 1005.41 1006.18 1006.70 1007.23 1007.65 1008.17 1008.86 1010.10 1011.14 1011.97 1012.65 1013.13 1013.34 1013.61 1013.93 1014.08 1014.44 1014.82 1015.10 1015.51 1015.80 1015.97 1016.14 1016.56 1016.97 1017.33 1017.65 1017.92 1018.37 1018.81 1019.11 1019.43 1019.58 1019.47 1019.39 1019.42 1019.43 1019.32 1019.30 1019.27 1019.49 1019.49 1019.60 1019.64
1005.90 1005.46 1005.24 1005.00 1005.13 1005.53 1006.09 1006.71 1007.22 1007.60 1007.94 1008.55 1010.06 1010.82 1011.58 1012.26 1012.62 1012.94 1013.31 1013.66 1014.10 1014.38 1014.69 1014.96 1015.29 1015.81 1016.07 1016.22 1016.65 1017.10 1017.83 1018.17 1018.31 1018.41 1018.54 1018.98 1019.08 1019.17 1019.33 1019.41 1019.45 1019.51 1019.50 1019.47 1019.52 1019.52 1019.67 1019.67 1019.60
1005.40 1004.76 1004.93 1004.84 1005.19 1005.58 1006.11 1006.67 1007.10 1007.98 1008.52 1009.20 1010.10 1010.98 1011.30 1011.78 1012.36 1012.82 1013.16 1013.53 1013.96 1014.19 1014.47 1014.81 1015.25 1015.70 1015.91 1016.38 1016.50 1017.04 1017.58 1018.35 1018.23 1018.39 1018.37 1018.65 1018.76 1019.04 1019.06 1019.02 1019.10 1019.44 1019.37 1019.28 1019.41 1019.49 1019.60 1019.58 1019.37
1004.78 1004.59 1004.70 1004.95 1005.18 1005.58 1005.87 1006.58 1007.05 1008.46 1008.97 1009.67 1009.96 1010.71 1011.13 1011.43 1011.84 1012.35 1012.67 1012.96 1013.32 1013.63 1013.87 1014.36 1014.92 1015.30 1015.67 1016.11 1016.49 1016.92 1017.35 1017.91 1018.05 1017.97 1018.01 1018.16 1018.36 1018.38 1018.59 1019.08 1019.11 1019.02 1019.08 1019.10 1019.26 1019.36 1019.42 1019.45 1019.34
1004.62 1004.46 1004.68 1005.04 1005.35 1005.43 1005.71 1006.50 1006.84 1007.93 1008.77 1009.40 1009.88 1010.15 1010.72 1011.21 1011.42 1011.47 1011.76 1012.23 1012.63 1013.05 1013.73 1014.11 1014.67 1014.94 1015.48 1015.90 1016.34 1016.82 1017.31 1017.63 1017.97 1017.92 1017.97 1017.96 1018.17 1018.15 1018.18 1018.73 1018.89 1018.58 1018.65 1018.94 1019.14 1019.30 1019.26 1019.11 1018.99
1004.62 1004.77 1004.59 1004.88 1005.28 1005.50 1005.67 1005.69 1006.76 1007.75 1008.28 1008.95 1009.53 1009.84 1010.11 1010.53 1010.90 1011.40 1011.78 1012.29 1012.64 1012.82 1013.32 1013.78 1014.14 1014.53 1015.08 1015.44 1015.79 1016.44 1016.58 1017.35 1017.57 1017.73 1017.86 1017.77 1017.77 1017.90 1018.10 1018.06 1018.39 1018.54 1018.56 1018.42 1018.50 1018.72 1018.80 1018.70 1018.65
1004.96 1004.74 1004.73 1004.72 1004.99 1005.34 1005.72 1005.49 1006.59 1007.49 1007.84 1008.39 1008.89 1009.17 1009.48 1010.03 1010.62 1010.92 1011.43 1012.03 1012.40 1012.68 1013.10 1013.54 1013.84 1014.05 1014.49 1014.90 1015.44 1015.48 1016.22 1016.66 1016.61 1016.98 1017.50 1017.44 1017.64 1017.59 1017.74 1017.92 1018.17 1018.46 1018.42 1018.10 1018.17 1018.19 1018.32 1018.23 1018.21
1005.16 1004.92 1004.97 1004.86 1004.97 1005.24 1005.55 1005.52 1006.51 1007.28 1007.53 1007.94 1008.41 1008.57 1008.90 1009.28 1009.70 1010.67 1011.43 1011.84 1012.17 1012.43 1012.84 1013.20 1013.41 1013.65 1014.10 1014.71 1015.32 1015.70 1015.83 1015.91 1015.85 1016.10 1016.54 1017.02 1017.26 1017.49 1017.70 1017.71 1017.65 1018.01 1017.76 1017.94 1017.86 1017.86 1017.84 1017.89 1017.81
1005.36 1005.19 1005.00 1004.76 1004.79 1005.14 1005.38 1005.69 1006.27 1006.76 1007.38 1007.79 1007.90 1008.12 1008.28 1008.58 1009.85 1010.68 1010.98 1011.30 1011.71 1012.09 1012.31 1012.61 1013.09 1013.29 1013.73 1014.15 1014.68 1015.01 1015.17 1015.55 1015.79 1015.68 1015.98 1016.41 1016.79 1016.91 1017.09 1017.24 1017.06 1017.50 1017.37 1017.49 1017.67 1017.55 1017.47 1017.29 1017.49
1005.21 1004.83 1004.61 1004.79 1004.85 1005.09 1005.46 1005.60 1005.99 1006.32 1006.72 1006.97 1007.34 1007.62 1007.75 1008.79 1009.99 1010.32 1010.64 1011.10 1010.99 1011.46 1011.78 1011.88 1012.26 1012.59 1013.05 1013.39 1013.85 1014.23 1014.60 1014.80 1014.95 1015.00 1015.39 1015.61 1015.99 1016.15 1016.28 1016.57 1016.73 1016.70 1017.00 1017.05 1017.44 1017.38 1017.28 1017.03 1016.91
1004.60 1004.28 1004.33 1004.48 1004.96 1005.40 1005.53 1005.63 1005.84 1006.27 1006.85 1007.00 1007.35 1007.48 1007.77 1009.02 1010.34 1011.83 1010.77 1010.83 1011.00 1010.85 1011.27 1011.67 1012.04 1012.26 1012.60 1012.93 1013.56 1013.93 1014.18 1014.44 1014.36 1014.52 1014.83 1014.98 1015.35 1015.46 1015.57 1015.65 1015.90 1016.23 1016.31 1016.42 1016.82 1016.86 1016.83 1016.78 1016.70
1004.03 1004.26 1004.26 1004.54 1004.58 1005.24 1006.02 1005.27 1005.41 1006.10 1006.44 1006.73 1006.90 1007.08 1007.33 1008.39 1010.12 1010.62 1010.09 1009.71 1010.43 1010.63 1011.24 1011.36 1011.46 1011.81 1012.08 1012.77 1013.22 1013.22 1013.21 1013.09 1013.00 1013.38 1013.81 1014.15 1014.36 1014.65 1014.81 1014.97 1015.25 1015.53 1015.99 1016.13 1016.26 1016.43 1016.37 1016.43 1016.08
1004.28 1004.45 1004.72 1004.78 1004.98 1005.34 1005.85 1005.75 1005.20 1006.11 1006.50 1006.93 1007.18 1007.13 1007.10 1007.90 1009.17 1009.74 1009.90 1009.90 1010.17 1010.45 1010.61 1011.02 1011.33 1011.55 1011.87 1012.14 1012.17 1012.68 1012.92 1013.01 1013.35 1013.76 1013.74 1013.79 1013.80 1013.85 1014.27 1014.30 1014.52 1014.86 1015.01 1015.15 1015.50 1015.77 1015.95 1015.88 1015.87
1004.41 1004.57 1005.03 1005.35 1005.19 1005.27 1006.25 1006.15 1005.20 1006.06 1006.95 1007.07 1007.39 1007.57 1007.77 1008.19 1008.86 1009.44 1009.97 1010.01 1009.87 1010.21 1010.64 1010.93 1011.15 1011.38 1011.62 1011.78 1012.08 1012.58 1012.88 1012.89 1013.22 1013.06 1013.21 1013.19 1013.16 1013.19 1013.52 1013.62 1013.79 1013.80 1014.17 1014.48 1014.83 1015.05 1015.35 1015.57 1015.56
1004.27 1004.33 1004.50 1004.81 1004.98 1005.58 1006.56 1006.46 1005.50 1006.28 1007.16 1007.40 1007.61 1007.76 1008.15 1008.58 1009.17 1009.67 1009.87 1009.91 1009.93 1009.92 1010.26 1010.69 1011.17 1011.36 1011.63 1011.75 1012.25 1012.64 1012.69 1012.83 1012.72 1012.68 1012.66 1012.86 1012.44 1012.46 1012.78 1013.02 1013.18 1013.26 1013.39 1013.89 1014.43 1014.61 1014.68 1014.93 1015.21
1004.24 1004.22 1004.36 1004.76 1005.34 1005.94 1006.73 1006.05 1005.71 1006.60 1007.23 1007.60 1008.04 1008.41 1008.62 1008.78 1008.97 1009.26 1009.44 1009.42 1009.50 1009.67 1010.20 1010.47 1010.95 1011.22 1011.49 1011.84 1012.12 1012.66 1012.69 1012.53 1012.51 1012.43 1012.40 1012.33 1011.69 1011.90 1011.98 1012.40 1012.76 1012.83 1013.03 1013.29 1013.79 1014.05 1014.04 1014.17 1014.36
1004.58 1004.75 1005.16 1005.26 1006.50 1006.12 1006.25 1006.26 1005.75 1006.21 1007.00 1007.52 1008.13 1008.72 1008.95 1009.16 1009.49 1009.25 1010.54 1009.49 1009.26 1009.56 1010.11 1010.33 1010.76 1011.20 1011.30 1011.78 1012.12 1012.18 1012.42 1012.47 1012.29 1012.30 1012.01 1011.40 1011.19 1011.35 1011.58 1011.78 1011.97 1012.08 1012.29 1012.78 1012.98 1013.53 1013.67 1013.80 1013.77
1004.37 1005.01 1005.32 1005.32 1005.65 1005.83 1006.17 1006.21 1005.65 1006.20 1006.55 1007.40 1008.14 1008.80 1009.28 1009.57 1009.85 1010.60 1011.39 1010.52 1009.56 1009.85 1010.44 1010.76 1010.80 1011.28 1011.54 1011.68 1011.89 1011.94 1012.02 1012.26 1012.01 1011.70 1011.27 1010.86 1010.58 1010.93 1011.14 1011.33 1011.33 1011.74 1011.69 1012.03 1012.40 1012.71 1012.97 1013.21 1013.27
1004.97 1004.89 1005.58 1005.79 1006.11 1005.67 1005.78 1005.69 1006.31 1006.55 1006.83 1007.37 1008.45 1009.19 1009.78 1010.15 1010.46 1010.83 1010.75 1010.45 1010.18 1010.53 1010.92 1010.87 1010.99 1011.37 1011.57 1011.44 1011.61 1011.70 1011.54 1011.35 1011.02 1010.59 1010.36 1010.25 1010.18 1010.36 1010.54 1010.86 1011.06 1011.40 1011.47 1011.71 1012.00 1012.27 1012.43 1012.67 1012.93
1004.88 1005.04 1005.10 1004.98 1006.20 1006.64 1006.53 1006.20 1006.91 1007.18 1007.38 1007.96 1008.80 1009.78 1010.24 1010.57 1010.79 1010.88 1010.70 1010.54 1010.79 1010.95 1011.04 1011.08 1011.18 1011.35 1011.45 1011.50 1011.41 1011.35 1011.14 1011.03 1010.81 1010.41 1010.20 1010.11 1009.94 1009.95 1010.19 1010.50 1010.80 1010.89 1011.08 1011.33 1011.73 1011.93 1011.77 1011.95 1011.91
Wind_Speed
11 8 3 2 1 4 4 6 3 4 3 4 6 1 5 8 4 5 9 7 17 16 15 15 14 17 17 18 18 18 18 17 17 16 16 15 14 14 14 13 13 16 15 15 15 15 15 13 13
7 4 2 0 4 5 4 6 12 11 8 12 9 6 6 5 4 11 7 14 16 16 15 15 14 16 17 16 17 17 17 18 16 16 16 14 15 14 15 13 12 15 15 15 15 15 14 13 13
4 1 2 3 3 5 4 4 6 6 5 3 6 9 4 3 9 7 13 16 16 14 14 15 15 16 16 16 16 16 16 16 15 15 16 16 15 16 16 13 14 14 14 14 13 13 14 13 13
2 3 2 5 7 4 3 1 1 5 6 7 6 8 6 10 6 6 16 16 16 15 14 17 17 17 16 16 16 16 15 15 15 15 15 15 14 15 16 13 15 14 13 12 12 12 12 12 11
1 1 4 4 5 2 1 1 4 6 4 6 3 7 9 4 8 17 16 14 16 14 14 15 15 15 16 15 14 15 15 15 14 15 15 15 15 15 16 15 15 14 12 11 10 10 11 10 9
1 1 3 5 3 2 1 3 2 6 6 9 12 9 3 7 14 16 15 14 14 14 13 14 14 14 14 15 15 14 15 15 14 14 14 13 12 13 13 13 14 14 12 10 9 9 8 7 7
3 2 3 1 3 2 1 4 5 6 6 5 10 6 4 9 15 15 13 13 14 13 12 12 13 13 15 14 15 15 13 14 13 12 13 13 11 10 11 12 11 12 13 11 8 6 6 5 3
2 1 3 1 2 3 4 3 6 6 5 10 5 6 7 10 16 14 13 13 13 11 12 11 10 12 11 11 14 13 12 12 11 10 9 13 7 4 6 5 8 10 11 9 9 6 4 3 1
1 2 2 1 2 3 6 3 4 5 10 4 4 5 14 18 16 14 13 11 11 10 11 12 12 10 10 10 11 12 11 10 9 8 3 8 7 4 2 2 4 6 7 7 7 6 4 3 1
1 1 3 1 4 2 6 3 8 5 8 5 13 17 20 19 16 16 15 13 15 14 14 12 12 12 11 9 10 10 7 4 5 5 2 3 2 2 4 6 7 7 5 5 4 4 3 4 2
4 3 3 0 5 3 6 4 3 8 5 6 15 19 20 19 16 15 15 15 15 15 12 14 12 11 11 9 7 6 5 3 2 5 6 8 2 2 3 2 2 2 4 3 5 4 4 3 2
4 9 7 3 5 5 6 8 4 1 4 11 19 21 19 18 17 16 15 14 14 14 15 14 14 11 11 7 7 6 3 2 6 6 9 5 4 7 4 2 3 3 2 4 5 3 4 5 4
5 4 4 3 6 7 8 4 5 6 12 19 20 17 18 16 15 14 13 13 12 13 14 15 14 13 11 11 8 7 5 6 8 8 9 7 6 4 4 5 5 4 4 6 6 5 4 5 6
3 5 2 6 5 4 7 4 4 6 15 17 21 17 16 17 17 15 15 14 15 14 14 15 15 14 13 11 11 8 6 6 7 6 8 8 4 5 6 4 4 5 5 6 6 6 6 6 6
4 0 2 5 6 4 5 4 3 15 16 18 16 17 16 15 16 18 17 16 16 14 12 14 13 14 14 12 10 7 4 4 5 3 5 8 7 7 6 3 5 6 5 6 6 7 6 7 7
3 1 3 2 7 1 5 3 7 17 17 16 16 15 15 17 17 15 13 13 12 12 13 13 11 13 14 12 8 6 6 4 4 2 4 7 9 9 7 7 6 6 5 5 5 6 6 7 7
5 1 4 4 9 6 8 4 5 15 15 15 15 15 15 14 16 15 14 13 12 13 12 13 13 13 14 13 10 8 6 7 7 5 5 6 7 9 8 6 5 4 5 6 5 6 7 7 8
1 4 3 6 3 6 8 11 5 12 14 13 14 14 14 14 16 14 13 12 13 13 13 13 12 14 13 9 8 6 7 7 7 6 7 7 5 5 7 5 8 6 6 6 7 8 7 7 7
3 3 6 5 4 8 10 8 2 8 12 12 13 14 14 16 6 5 11 13 13 14 14 14 14 13 10 8 7 8 8 7 7 8 10 9 7 9 7 6 10 6 7 6 7 7 8 7 7
5 4 0 2 5 6 2 4 4 1 9 15 14 14 15 10 8 9 4 10 15 16 16 15 15 14 12 9 5 4 3 3 4 4 6 8 11 10 9 9 9 9 5 5 5 8 4 6 7
4 2 1 3 5 6 1 2 4 1 2 8 11 13 13 7 9 14 18 10 15 15 16 14 13 13 11 10 6 4 3 3 5 5 4 6 8 10 11 12 10 8 8 7 6 7 8 5 4
1 3 2 4 4 2 3 4 4 4 7 2 7 11 13 10 15 16 17 5 13 13 9 12 13 13 12 11 8 10 8 8 5 5 4 5 8 9 11 11 11 10 6 8 8 8 9 8 7
3 4 3 2 4 4 3 4 2 3 5 5 6 6 5 6 16 18 14 9 10 10 11 12 11 11 10 12 12 8 11 9 6 4 5 6 6 8 10 11 11 11 9 11 10 9 10 8 8
7 3 4 2 1 2 3 5 2 0 2 3 4 5 5 10 12 11 8 8 7 8 11 7 9 9 9 11 12 11 10 10 7 7 6 5 5 5 10 11 11 11 10 11 10 11 11 9 8
3 3 3 3 3 2 0 4 3 1 3 3 5 1 5 8 12 11 10 8 8 8 8 7 8 8 9 11 9 9 10 11 12 10 5 5 3 5 9 11 11 10 12 10 9 10 10 10 9
3 5 4 4 4 2 2 3 2 1 1 1 1 2 4 8 10 10 9 8 6 6 5 5 6 7 7 8 7 6 8 7 8 8 5 5 4 7 8 7 9 11 10 10 11 10 10 10 10
6 4 3 6 1 3 1 3 8 6 4 2 3 5 4 4 4 12 3 7 9 7 4 5 5 5 6 5 4 6 5 7 7 9 8 5 4 6 8 9 10 12 11 12 11 9 10 11 11
3 8 4 1 4 3 3 4 4 4 7 5 5 7 7 5 8 6 4 6 10 9 5 3 1 5 5 5 6 6 5 6 9 9 9 8 5 7 9 9 10 11 9 11 11 10 10 11 9
6 4 6 5 3 3 3 2 1 7 8 5 6 8 7 4 5 4 7 10 12 9 4 3 0 5 8 6 5 6 6 8 7 7 8 9 8 8 8 8 8 10 10 9 11 11 10 11 10
2 3 4 3 5 1 2 2 4 7 5 2 5 11 6 5 5 3 7 10 9 9 8 7 5 4 6 6 5 5 5 4 4 5 5 6 7 5 7 6 7 8 8 9 12 12 11 13 12
Wind_Direction
145 149 152 210 120 66 55 40 340 96 87 69 109 169 84 42 14 70 130 139 135 137 140 140 130 122 119 119 124 126 130 130 130 131 132 134 134 127 124 120 119 113 111 116 114 113 112 112 111
145 152 190 108 70 88 50 22 68 74 106 108 86 99 57 72 62 116 117 141 136 137 142 142 132 127 126 127 130 132 136 137 137 137 138 139 133 133 126 125 114 112 116 114 123 121 117 119 116
187 192 308 62 57 54 92 64 93 84 135 149 119 61 62 65 110 116 125 138 135 135 139 136 136 133 136 135 138 137 137 139 139 135 133 131 133 132 124 130 122 118 118 119 115 117 119 121 123
268 189 101 59 42 68 66 93 94 134 88 60 109 71 89 109 121 118 141 139 140 139 141 142 143 140 142 142 142 142 144 143 141 136 131 134 136 131 125 132 127 128 122 114 119 119 119 123 122
261 19 47 37 23 64 101 3 80 60 80 22 93 91 105 44 111 137 142 146 145 142 141 145 143 144 144 143 147 147 147 150 146 146 147 144 144 139 137 138 134 133 130 127 127 123 128 133 137
27 332 36 37 359 345 95 169 84 85 101 119 95 98 99 125 140 144 144 148 148 145 147 146 145 147 150 152 154 148 150 151 155 152 143 137 137 138 138 136 133 131 128 128 128 128 130 135 146
23 17 27 8 359 343 98 118 148 106 121 97 122 94 102 149 146 145 144 149 152 149 151 154 155 157 162 165 159 154 162 159 160 150 147 131 144 142 143 141 143 142 141 142 140 140 140 147 164
4 0 345 64 18 325 131 92 126 124 75 113 123 147 167 153 153 145 146 152 155 158 161 163 164 165 170 174 165 171 168 164 161 156 157 133 113 139 140 153 161 159 153 153 146 155 158 153 179
259 333 326 38 172 317 134 111 115 81 126 73 29 125 133 148 150 146 151 155 165 169 175 172 174 175 173 182 175 177 185 169 158 144 177 114 135 214 45 205 242 200 172 163 153 168 179 213 246
154 266 246 133 189 240 124 138 137 131 136 77 79 103 129 147 159 161 168 171 179 179 184 182 186 185 185 186 183 179 183 164 128 124 136 356 156 203 284 261 242 239 205 205 176 191 198 241 270
155 243 325 28 196 144 140 112 120 144 175 169 147 138 147 157 168 174 179 183 186 188 189 191 190 193 198 194 189 182 177 170 165 171 186 181 182 253 258 255 267 322 237 237 211 224 232 236 275
234 233 252 313 152 123 131 124 105 53 56 128 146 150 153 168 179 182 184 187 189 192 198 196 197 199 206 201 199 188 176 184 210 230 205 177 188 228 220 226 248 264 279 240 254 253 289 271 261
242 276 175 240 128 115 129 119 112 79 106 125 140 157 165 173 180 189 194 193 191 196 200 203 202 202 207 209 207 199 154 223 227 227 212 198 203 200 207 228 226 235 229 234 237 248 270 282 287
297 296 100 158 146 142 138 130 173 118 132 138 152 169 177 182 185 189 200 200 199 201 201 201 203 204 210 216 213 211 209 208 243 225 216 215 196 226 220 204 238 234 239 232 236 250 271 283 286
318 277 138 141 191 154 149 156 171 149 152 153 170 173 187 192 198 203 202 202 203 204 204 208 202 204 212 216 218 218 228 148 232 237 234 218 214 236 238 207 242 238 221 215 222 242 252 264 267
33 71 223 128 165 120 218 287 157 161 161 168 177 187 193 199 207 213 218 218 213 221 196 204 204 206 212 211 202 219 199 182 242 241 216 225 222 228 231 230 222 231 242 234 217 224 240 253 255
30 327 287 282 203 143 215 295 131 175 179 175 186 194 201 205 211 215 215 217 219 217 216 210 206 211 214 212 196 216 185 178 207 211 214 220 234 235 235 237 237 188 229 233 240 225 228 241 246
290 319 248 257 168 200 191 252 107 182 194 193 194 200 205 209 215 211 225 228 222 220 218 217 210 214 214 196 208 229 218 207 210 213 220 217 240 249 232 222 241 204 217 222 237 241 229 237 242
287 260 265 264 218 193 228 274 343 200 204 205 207 214 214 214 190 194 225 225 227 226 219 214 213 212 203 201 199 222 226 227 229 217 207 206 198 209 205 212 236 215 220 225 239 249 236 226 220
252 253 246 38 119 210 154 247 309 240 228 217 213 224 225 210 160 183 359 250 220 225 223 215 215 208 206 215 208 198 175 208 225 210 220 211 210 207 216 213 220 217 204 199 215 232 247 232 202
200 258 138 117 118 65 100 233 301 47 334 241 232 242 252 221 146 65 334 279 268 229 224 216 215 212 213 208 209 201 192 223 217 202 223 207 216 216 213 215 217 214 212 222 219 225 224 254 232
144 249 96 141 192 139 312 295 269 0 341 225 254 252 243 220 141 153 206 224 242 244 224 211 206 205 208 197 209 221 233 234 224 223 193 195 201 221 214 212 216 218 202 221 221 222 235 230 235
72 49 24 59 98 175 38 248 301 20 54 31 4 333 257 184 156 184 204 233 236 223 216 213 199 201 203 203 212 208 233 252 252 251 252 236 204 216 222 210 210 224 220 222 219 222 223 227 243
140 101 73 79 138 169 42 285 220 105 54 300 22 24 88 124 128 147 161 184 198 205 217 208 210 206 199 209 219 219 239 249 249 242 240 226 224 209 217 215 222 218 224 229 225 220 220 228 236
153 176 262 244 204 23 25 237 339 333 30 299 333 4 143 115 117 125 135 160 180 165 179 181 206 221 206 216 221 222 240 244 244 242 237 247 223 223 227 217 215 220 221 224 232 223 219 215 217
181 248 237 252 207 49 153 234 74 355 335 302 343 85 156 139 129 125 133 139 157 153 137 176 198 232 210 217 223 229 252 252 245 229 236 251 246 251 244 237 232 232 225 209 216 227 226 227 227
149 200 40 119 92 243 63 246 258 244 199 215 94 109 136 120 85 65 33 99 109 115 181 203 209 233 238 237 237 268 248 224 231 240 242 263 267 264 252 234 226 228 217 221 216 223 230 234 231
249 124 167 168 180 224 185 266 267 250 220 190 146 126 89 65 52 100 156 75 91 93 108 186 176 272 267 264 279 286 266 247 251 253 267 294 285 269 256 240 228 234 220 222 216 216 223 225 232
152 171 69 104 335 255 248 214 195 281 269 219 121 113 97 69 55 79 95 84 70 74 88 106 174 293 298 289 290 287 283 293 297 295 301 297 290 265 248 238 234 233 220 209 220 221 217 225 227
356 101 179 227 172 86 309 224 18 303 286 230 105 118 108 106 77 53 44 50 57 60 49 37 28 345 306 286 270 269 280 287 295 291 288 291 283 255 242 244 244 243 233 222 222 219 221 229 224